Location: Unspecified
(38.0989°N, 0.6729°W)
Time: 22:21:06
(UTC+01:00)

Hubble Space Telescope - Visible Passes

Search period start: 21 February 2017 00:00
Search period end: 03 March 2017 00:00
Orbit: 538 x 542 km, 28.5° (Epoch: 20 February)

Date Brightness Start Highest point End Pass type
(mag) Time Alt. Az. Time Alt. Az. Time Alt. Az.
24 Feb 3.2 20:44:14 10° SSW 20:45:14 13° S 20:45:14 13° S visible
25 Feb 2.8 20:33:49 10° SSW 20:36:00 16° S 20:36:00 16° S visible
26 Feb 2.6 20:23:32 10° SW 20:26:22 18° S 20:26:43 18° SSE visible
27 Feb 2.5 20:13:18 10° SW 20:16:18 19° S 20:17:25 18° SSE visible
28 Feb 2.6 20:03:08 10° SW 20:06:14 21° S 20:08:06 16° SE visible
01 Mar 2.6 19:53:01 10° SW 19:56:10 21° S 19:58:46 13° SE visible
01 Mar 3.7 21:34:04 10° SW 21:34:08 10° SW 21:34:08 10° SW visible
02 Mar 2.6 19:42:56 10° SW 19:46:06 21° S 19:49:17 10° SE visible
02 Mar 3.5 21:24:15 10° SW 21:24:49 12° SW 21:24:49 12° SW visible
